Location: Escondido Hill
(38.9119°N, 104.7815°W)
Time: 16:55:58
(UTC-06:00)

OTV 5 (USA 277) - Visible Passes

Search period start: 20 June 2018 00:00
Search period end: 30 June 2018 00:00
Orbit: 313 x 320 km, 54.5° (Epoch: 19 June)

Date Brightness Start Highest point End Pass type
(mag) Time Alt. Az. Time Alt. Az. Time Alt. Az.
20 Jun ? 03:29:35 10° NW 03:31:43 50° NNW 03:31:43 50° NNW visible
20 Jun ? 21:24:41 10° NW 21:25:39 11° NNW 21:26:39 10° N visible
21 Jun ? 02:10:20 10° NNW 02:11:09 14° N 02:11:09 14° N visible
26 Jun ? 00:13:54 10° NNW 00:14:14 12° N 00:14:14 12° N visible
27 Jun ? 23:09:02 10° N 23:10:12 12° NNE 23:10:15 12° NNE visible
28 Jun ? 23:22:33 10° NNW 23:23:45 19° N 23:23:45 19° N visible
29 Jun ? 23:36:40 10° NW 23:37:18 16° NW 23:37:18 16° NW visible
